This is the latest recevied weather packets stored in our database for station/object WW5AH-9. If no packets are shown the sender has not sent any weather packets the latest 1 day(s).
| Time | Temp. | Humidity | Pressure | Rain* | Wind** | Luminosity | Snow |
|---|---|---|---|---|---|---|---|
| 1778031801 | 25° C | 79% | 1004.7 hPa | 0 mm | 0.89 m/s, 153° | 0 W/m² | - |
| 1778031497 | 25° C | 79% | 1004.9 hPa | 0 mm | 0.45 m/s, 183° | 0 W/m² | - |
| 1778031194 | 25° C | 78% | 1004.6 hPa | 0 mm | 0.45 m/s, 181° | 0 W/m² | - |
| 1778030891 | 25.56° C | 78% | 1004.5 hPa | 0 mm | 0.45 m/s, 154° | 0 W/m² | - |
| 1778030588 | 25.56° C | 78% | 1004.7 hPa | 0 mm | 0.45 m/s, 123° | 0 W/m² | - |
| 1778030285 | 25.56° C | 77% | 1004.9 hPa | 0 mm | 0.45 m/s, 177° | 0 W/m² | - |
| 1778029981 | 25.56° C | 77% | 1005 hPa | 0 mm | 0 m/s | 0 W/m² | - |
| 1778029680 | 25.56° C | 77% | 1004.5 hPa | 0 mm | 0.45 m/s, 197° | 1 W/m² | - |
| 1778029378 | 26.11° C | 76% | 1004.7 hPa | 0 mm | 0.45 m/s, 181° | 1 W/m² | - |
| 1778029074 | 26.11° C | 76% | 1004.6 hPa | 0 mm | 0.45 m/s, 167° | 2 W/m² | - |
| 1778028770 | 26.11° C | 76% | 1004.6 hPa | 0 mm | 0 m/s | 3 W/m² | - |
| 1778028467 | 26.11° C | 75% | 1004.4 hPa | 0 mm | 0.89 m/s, 172° | 5 W/m² | - |
| 1778028165 | 26.11° C | 75% | 1004.5 hPa | 0 mm | 0.89 m/s, 207° | 9 W/m² | - |
| 1778027860 | 26.11° C | 75% | 1004.2 hPa | 0 mm | 0 m/s | 11 W/m² | - |
| 1778027557 | 26.67° C | 74% | 1004.2 hPa | 0 mm | 0.45 m/s, 112° | 11 W/m² | - |
| 1778027253 | 26.67° C | 74% | 1004.3 hPa | 0 mm | 0 m/s | 13 W/m² | - |
| 1778026950 | 26.67° C | 73% | 1004.1 hPa | 0 mm | 0 m/s | 16 W/m² | - |
| 1778026645 | 26.67° C | 73% | 1003.9 hPa | 0 mm | 0.45 m/s, 242° | 23 W/m² | - |
| 1778026343 | 26.67° C | 73% | 1004 hPa | 0 mm | 0.89 m/s, 185° | 29 W/m² | - |
| 1778026039 | 27.22° C | 72% | 1004.2 hPa | 0 mm | 0.89 m/s, 189° | 36 W/m² | - |
| 1778025738 | 27.22° C | 72% | 1004.1 hPa | 0 mm | 0.45 m/s, 174° | 25 W/m² | - |
| 1778025435 | 27.22° C | 72% | 1004.1 hPa | 0 mm | 0.89 m/s, 208° | 41 W/m² | - |
| 1778025133 | 27.22° C | 72% | 1004.4 hPa | 0 mm | 0.89 m/s, 176° | 45 W/m² | - |
| 1778024829 | 27.22° C | 71% | 1004.3 hPa | 0 mm | 0 m/s | 44 W/m² | - |
| 1778024526 | 27.78° C | 71% | 1004.2 hPa | 0 mm | 0 m/s | 41 W/m² | - |
* Rain latest hour (hover to see other rain measurements)
** Current wind speed in m/s (hover to see current wind gust speed)